Kelso-Longview, WA
on Thursday, December 20, 2012

Thursday
Previous Day Next Day
Daily Summary
 ActualAverage (KSPB)Record (KSPB)
Temperature
Mean Temperature °F °F  
Max Temperature 46°F °F 48°F (1999)
Min Temperature 37°F °F 12°F (1998)
Degree Days
Heating Degree Days 24    
Month to date heating degree days  
Since 1 July heating degree days  
Cooling Degree Days 0    
Month to date cooling degree days  
Year to date cooling degree days  
Growing Degree Days0 (Base °F )  
Moisture
Dew Point 36°F   
Average Humidity 80    
Maximum Humidity 87    
Minimum Humidity 70    
Precipitation
Precipitation 0.60 in in 0.84 in (2012)
Month to date precipitation  
Year to date precipitation  
Wind
Wind Speed 14 mph   
Max Wind Speed 23 mph   
Max Gust Speed 37 mph   
Visibility 10 miles   
Events     

Key: T is trace of precipitation, MM is missing value
Source: NWS Daily Summary
Time(PST)TemperatureDew PointHumidity Pressure Visibility Wind DirectionWind SpeedGust SpeedPrecipitationEvents Conditions
12:15 AM 46.4°F 39.2°F 76% 29.54 in 10.0 miles SSE 19.6 mph 36.8 mph 0.02 in   Overcast
12:35 AM 46.4°F 39.2°F 76% 29.54 in 10.0 miles SSE 19.6 mph 34.5 mph 0.03 in   Overcast
12:55 AM 46.4°F 39.2°F 76% 29.55 in 10.0 miles SSE 13.8 mph 31.1 mph 0.05 in   Overcast
1:15 AM 46.4°F 39.2°F 76% 29.54 in 10.0 miles SE 23.0 mph 29.9 mph 0.01 in   Overcast
1:35 AM 46.4°F 39.2°F 76% 29.54 in 10.0 miles SSE 19.6 mph 33.4 mph 0.01 in   Overcast
1:55 AM 46.4°F 39.2°F 76% 29.56 in 10.0 miles SSE 21.9 mph 27.6 mph 0.01 in   Overcast
2:15 AM 46.4°F 39.2°F 76% 29.57 in 10.0 miles SSE 17.3 mph 27.6 mph 0.01 in   Overcast
2:35 AM 44.6°F 39.2°F 81% 29.56 in 10.0 miles SSE 12.7 mph 21.9 mph 0.01 in   Overcast
2:55 AM 46.4°F 39.2°F 76% 29.57 in 10.0 miles SSE 12.7 mph 27.6 mph 0.02 in   Overcast
3:15 AM 44.6°F 39.2°F 81% 29.58 in 10.0 miles SSE 12.7 mph 21.9 mph N/A   Overcast
3:35 AM 44.6°F 39.2°F 81% 29.57 in 10.0 miles SSE 16.1 mph 26.5 mph 0.01 in   Mostly Cloudy
3:55 AM 44.6°F 39.2°F 81% 29.57 in 10.0 miles SSE 12.7 mph 27.6 mph 0.01 in   Overcast
4:15 AM 44.6°F 39.2°F 81% 29.57 in 10.0 miles SSE 10.4 mph 23.0 mph N/A   Overcast
4:35 AM 44.6°F 39.2°F 81% 29.56 in 10.0 miles SSE 13.8 mph 20.7 mph 0.02 in   Overcast
4:55 AM 44.6°F 39.2°F 81% 29.56 in 10.0 miles SSE 13.8 mph 21.9 mph 0.03 in   Overcast
5:15 AM 44.6°F 39.2°F 81% 29.57 in 9.0 miles SSE 13.8 mph 25.3 mph 0.02 in   Overcast
5:35 AM 44.6°F 39.2°F 81% 29.56 in 10.0 miles SSE 17.3 mph 23.0 mph 0.04 in   Overcast
5:55 AM 44.6°F 37.4°F 76% 29.54 in 10.0 miles SE 16.1 mph 25.3 mph 0.05 in   Overcast
6:15 AM 42.8°F 37.4°F 81% 29.56 in 10.0 miles SE 20.7 mph 28.8 mph 0.02 in   Overcast
6:35 AM 42.8°F 37.4°F 81% 29.56 in 10.0 miles SSE 19.6 mph 26.5 mph 0.05 in   Overcast
6:55 AM 42.8°F 37.4°F 81% 29.58 in 10.0 miles SSE 16.1 mph 29.9 mph 0.08 in   Overcast
7:15 AM 42.8°F 37.4°F 81% 29.59 in 10.0 miles SSE 18.4 mph 27.6 mph 0.05 in   Overcast
7:35 AM 42.8°F 37.4°F 81% 29.60 in 10.0 miles SSE 9.2 mph - 0.09 in   Overcast
7:55 AM 42.8°F 37.4°F 81% 29.59 in 10.0 miles SSE 15.0 mph 23.0 mph 0.12 in   Overcast
8:15 AM 41.0°F 35.6°F 81% 29.61 in 10.0 miles SSE 15.0 mph 21.9 mph 0.03 in   Overcast
8:35 AM 41.0°F 35.6°F 81% 29.61 in 10.0 miles SE 11.5 mph 20.7 mph 0.05 in   Overcast
8:55 AM 41.0°F 35.6°F 81% 29.63 in 10.0 miles SE 10.4 mph 19.6 mph 0.09 in   Overcast
9:15 AM 41.0°F 35.6°F 81% 29.63 in 9.0 miles SSE 13.8 mph 21.9 mph 0.03 in   Mostly Cloudy
9:35 AM 41.0°F 35.6°F 81% 29.64 in 10.0 miles SE 15.0 mph 21.9 mph 0.04 in   Mostly Cloudy
9:55 AM 39.2°F 35.6°F 87% 29.65 in 10.0 miles SE 15.0 mph 20.7 mph 0.05 in   Mostly Cloudy
10:15 AM 39.2°F 35.6°F 87% 29.67 in 10.0 miles SE 12.7 mph 16.1 mph 0.01 in   Overcast
10:35 AM 39.2°F 33.8°F 81% 29.69 in 10.0 miles SE 12.7 mph 18.4 mph 0.03 in   Overcast
10:55 AM 39.2°F 33.8°F 81% 29.69 in 10.0 miles SE 13.8 mph 20.7 mph 0.06 in   Overcast
11:15 AM 39.2°F 33.8°F 81% 29.70 in 10.0 miles SSE 13.8 mph 21.9 mph 0.01 in   Overcast
11:35 AM 39.2°F 33.8°F 81% 29.71 in 10.0 miles SE 13.8 mph 24.2 mph 0.02 in   Overcast
11:55 AM 37.4°F 33.8°F 87% 29.70 in 10.0 miles ESE 11.5 mph 21.9 mph 0.03 in   Overcast
12:15 PM 39.2°F 33.8°F 81% 29.71 in 10.0 miles SE 15.0 mph 20.7 mph N/A   Overcast
12:35 PM 39.2°F 33.8°F 81% 29.73 in 10.0 miles SE 11.5 mph 20.7 mph N/A   Overcast
12:55 PM 39.2°F 33.8°F 81% 29.74 in 10.0 miles SE 9.2 mph - N/A   Overcast
1:15 PM 39.2°F 33.8°F 81% 29.73 in 10.0 miles SE 12.7 mph 18.4 mph N/A   Mostly Cloudy
1:35 PM 39.2°F 33.8°F 81% 29.75 in 10.0 miles SE 15.0 mph 23.0 mph N/A   Overcast
1:55 PM 39.2°F 35.6°F 87% 29.75 in 10.0 miles SE 10.4 mph 19.6 mph N/A   Overcast
2:15 PM 39.2°F 35.6°F 87% 29.76 in 10.0 miles SE 11.5 mph 17.3 mph N/A   Overcast
2:35 PM 41.0°F 35.6°F 81% 29.78 in 10.0 miles SE 12.7 mph - N/A   Overcast
2:55 PM 41.0°F 35.6°F 81% 29.78 in 10.0 miles ESE 11.5 mph 16.1 mph N/A   Overcast
3:15 PM 41.0°F 33.8°F 76% 29.79 in 10.0 miles SE 10.4 mph 16.1 mph N/A   Overcast
3:35 PM 41.0°F 33.8°F 76% 29.79 in 10.0 miles SE 9.2 mph 17.3 mph N/A   Overcast
4:15 PM 41.0°F 33.8°F 76% 29.81 in - SE 13.8 mph 18.4 mph N/A   Overcast
4:35 PM 41.0°F 33.8°F 76% 29.81 in 10.0 miles SE 10.4 mph - N/A   Overcast
4:55 PM 41.0°F 33.8°F 76% 29.81 in 10.0 miles SE 8.1 mph - N/A   Overcast
5:15 PM 39.2°F 35.6°F 87% 29.82 in 10.0 miles SE 8.1 mph - N/A   Overcast
5:35 PM 39.2°F 35.6°F 87% 29.82 in 10.0 miles SE 8.1 mph 16.1 mph N/A   Overcast
5:55 PM 39.2°F 33.8°F 81% 29.82 in 10.0 miles SE 8.1 mph - N/A   Overcast
6:15 PM 41.0°F 35.6°F 81% 29.83 in 10.0 miles SE 8.1 mph - N/A   Overcast
6:35 PM 41.0°F 33.8°F 76% 29.83 in 10.0 miles SE 8.1 mph - N/A   Mostly Cloudy
6:55 PM 39.2°F 33.8°F 81% 29.82 in 10.0 miles SE 6.9 mph - N/A   Mostly Cloudy
7:15 PM 41.0°F 33.8°F 76% 29.82 in 10.0 miles ESE 6.9 mph - N/A   Overcast
7:35 PM 41.0°F 33.8°F 76% 29.82 in 10.0 miles SE 10.4 mph 16.1 mph N/A   Overcast
7:55 PM 41.0°F 33.8°F 76% 29.82 in 10.0 miles SE 8.1 mph - N/A   Mostly Cloudy
8:15 PM 41.0°F 33.8°F 76% 29.82 in 10.0 miles SE 9.2 mph - N/A   Overcast
8:35 PM 41.0°F 35.6°F 81% 29.83 in 10.0 miles South 4.6 mph - N/A   Overcast
8:55 PM 41.0°F 33.8°F 76% 29.82 in 10.0 miles SE 8.1 mph 17.3 mph N/A   Overcast
9:15 PM 42.8°F 33.8°F 70% 29.82 in 10.0 miles ESE 6.9 mph - N/A   Overcast
9:35 PM 41.0°F 33.8°F 76% 29.82 in 10.0 miles SE 10.4 mph - N/A   Overcast
9:55 PM 41.0°F 33.8°F 76% 29.82 in 10.0 miles SSE 6.9 mph - N/A   Mostly Cloudy
10:15 PM 39.2°F 33.8°F 81% 29.82 in 10.0 miles South 4.6 mph - N/A   Mostly Cloudy
10:35 PM 39.2°F 33.8°F 81% 29.82 in 10.0 miles SSE 5.8 mph - N/A   Overcast
10:55 PM 39.2°F 33.8°F 81% 29.82 in 10.0 miles SSE 4.6 mph - N/A   Scattered Clouds
11:15 PM 37.4°F 33.8°F 87% 29.81 in 10.0 miles Calm Calm - N/A   Clear
11:35 PM 37.4°F 33.8°F 87% 29.81 in 10.0 miles ESE 4.6 mph - N/A   Scattered Clouds
11:55 PM 37.4°F 33.8°F 87% 29.81 in 10.0 miles SE 4.6 mph - N/A   Overcast
Moon Phase
Dec. 20 Dec. 28 Jan. 04 Jan. 11 Jan. 18
Sunrise:07:50 AM (PST) Moon Rise:12:04 PM (PST)
Sunset:04:28 PM (PST) Moon Set:12:25 AM (PST)

Copyright © 2014 The Weather Underground, Inc.